User: anonymous   Login
Location: Unspecified
(0.0000°N, 0.0000°E)
Time: 18:26:32
(UTC+00:00)
Language:

FORTE - Orbit

View from above orbital plane
View from above orbital plane
View from above satellite
View from above satellite

Ground track
Ground track

The orbit data is extracted from the following two-line orbital elements,

1 24920U 97047A   17080.47667557 +.00000016 +00000-0 +30579-4 0  9992
2 24920 069.9536 061.2298 0023663 197.6092 162.4211 14.26228297017333
Epoch (UTC): 21 March 2017 11:26:24
Eccentricity: 0.0023663
inclination: 69.9536°
perigee height: 787 km
apogee height: 821 km
right ascension of ascending node: 61.2298°
argument of perigee: 197.6092°
revolutions per day: 14.26228297
mean anomaly at epoch: 162.4211°
orbit number at epoch: 1733

The dashed part of the orbit path shows where the satellite is in the earth's shadow,  

DLR